Location: N�rnberg
(49.4489°N, 11.0797°E)
Time: 09:12:48
(UTC+02:00)

ISS - Visible Passes

Search period start: 23 May 2018 00:00
Search period end: 02 June 2018 00:00
Orbit: 402 x 407 km, 51.6° (Epoch: 24 May)

Date Brightness Start Highest point End Pass type
(mag) Time Alt. Az. Time Alt. Az. Time Alt. Az.
23 May -3.2 00:37:39 10° W 00:40:52 56° N 00:44:06 10° ENE visible
23 May -3.9 02:14:15 10° WNW 02:17:32 86° N 02:20:49 10° ESE visible
23 May -2.8 03:51:02 10° W 03:53:45 24° SW 03:56:29 10° SSE visible
23 May -3.7 22:08:58 10° SW 22:12:08 50° SSE 22:15:20 10° ENE visible
23 May -3.3 23:45:23 10° W 23:48:38 61° N 23:51:53 10° ENE visible
24 May -3.6 01:22:03 10° WNW 01:25:19 68° NNE 01:27:54 15° E visible
24 May -2.5 02:58:39 10° W 03:00:18 24° W 03:00:18 24° W visible
24 May -3.6 22:53:06 10° W 22:56:23 74° NNW 22:59:40 10° ENE visible
25 May -3.3 00:29:50 10° WNW 00:33:04 58° N 00:35:43 14° E visible
25 May -2.7 02:06:23 10° WNW 02:08:18 31° W 02:08:18 31° W visible
25 May -3.9 22:00:53 10° WSW 22:04:10 85° SSE 22:07:27 10° ENE visible
25 May -3.1 23:37:34 10° W 23:40:47 55° N 23:44:01 10° E visible
26 May -3.9 01:14:09 10° WNW 01:17:14 77° W 01:17:14 77° W visible
26 May -3.2 22:45:16 10° W 22:48:30 58° N 22:51:45 10° ENE visible
27 May -3.7 00:21:55 10° WNW 00:25:12 73° NNE 00:26:24 35° E visible
27 May -1.4 01:58:33 10° W 01:59:00 13° W 01:59:00 13° W visible
27 May -3.4 21:52:57 10° W 21:56:12 68° NNW 21:59:29 10° ENE visible
27 May -3.4 23:29:39 10° WNW 23:32:55 61° N 23:35:39 14° E visible
28 May -2.7 01:06:12 10° WNW 01:08:17 33° W 01:08:17 33° W visible
28 May -3.1 22:37:22 10° WNW 22:40:35 56° N 22:43:49 10° E visible
29 May -4.0 00:13:55 10° WNW 00:17:12 76° SSW 00:17:36 63° SE visible
29 May -3.8 23:21:39 10° WNW 23:24:56 80° NNE 23:26:58 21° ESE visible
30 May -1.8 00:58:21 10° W 00:59:36 18° W 00:59:36 18° W visible
30 May -3.4 22:29:22 10° WNW 22:32:38 64° N 22:35:53 10° E visible
31 May -3.4 00:05:56 10° WNW 00:08:59 43° SW 00:08:59 43° SW visible
31 May -3.9 23:13:35 10° WNW 23:16:51 66° SSW 23:18:24 28° SE visible
01 Jun -1.1 00:50:54 10° WSW 00:51:01 10° WSW 00:51:01 10° WSW visible
01 Jun -3.8 22:21:17 10° WNW 22:24:34 88° NNE 22:27:49 10° ESE visible
